Location: Casco Volunteer Fire Department
(44.5576°N, 87.6146°W)
Time: 01:27:52
(UTC+00:00)

BlueWalker 3 - Pass Details

Date: 19 March 2026
Orbit: 449 x 457 km, 53.2° (Epoch: 14 April)

Event Time Altitude Azimuth Distance (km) Brightness Sun altitude
Exits shadow 10:47:03 14° 215° (SW) 1,355 3.7 -12.9°
Drops below altitude 10° 10:48:22 10° 194° (SSW) 1,588 4.2 -12.7°
Sets 10:51:10 0° 170° (S) 2,454 5.4 -12.2°
